Location: Castillon
(43.0896°N, 0.2156°E)
Time: 03:40:47
(UTC+00:00)

Cosmos 1980 Rocket - Pass Details

Date: 18 October 2021
Orbit: 828 x 851 km, 71.0° (Epoch: 07 December)

Event Time Altitude Azimuth Distance (km) Brightness Sun altitude
Rises 18:25:57 0° 211° (SSW) 3,375 5.8 -14.3°
Reaches altitude 10° 18:28:24 10° 214° (SW) 2,448 5.1 -14.8°
Maximum altitude 18:33:59 67° 297° (WNW) 916 2.6 -15.8°
Drops below altitude 10° 18:39:39 10° 20° (NNE) 2,478 4.5 -16.8°
Sets 18:42:09 0° 23° (NNE) 3,420 5.2 -17.3°
